Nome, AK

12:20 AM AKST on February 24, 2017 (GMT -0900)
Nome

Weather History for PAOM - February, 2012

Change the Weather History Date:

Sunday, February 12, 2012

  Actual Average Record
Temperature  
Mean Temperature 28 °F 7 °F  
Max Temperature 33 °F 15 °F 43 °F (1970)
Min Temperature 23 °F -1 °F -34 °F (1952)
Degree Days  
Heating Degree Days 37 58  
Month to date heating degree days 648 704  
Since 1 July heating degree days 9444 8372  
Cooling Degree Days 0 0  
Month to date cooling degree days 0 0  
Year to date cooling degree days 0 0  
Moisture  
Dew Point 21 °F    
Average Humidity 0    
Maximum Humidity 0    
Minimum Humidity 0    
Precipitation  
Precipitation 0.01 in 0.03 in 0.44 in (1946)
Month to date precipitation 0.86 0.39  
Year to date precipitation 1.02 1.33  
Snow  
Snow 0.20 in 0.40 in 9.30 in (2005)
Month to date snowfall 14.8 5.0  
Since 1 July snowfall 62.4 49.5  
Snow Depth 28.00 in    
Sea Level Pressure  
Sea Level Pressure 29.07 in    
Wind  
Wind Speed 11 mph (ENE)    
Max Wind Speed 20 mph    
Max Gust Speed 24 mph    
Visibility 7 miles    
Events Snow    
T = Trace of Precipitation, MM = Missing Value Source: NWS Daily Summary

Daily Weather History Graph

Daily Weather History Graph

Search for Another Location

Airport or City:

Trip Planner

Search our weather history database for the weather conditions in past years. The results will help you decide how hot, cold, wet, or windy it might be!

Date:

Astronomy

Feb. 12, 2012 Rise Set
Actual Time 10:09 AM AKST 6:23 PM AKST
Civil Twilight 9:16 AM AKST 7:16 PM AKST
Nautical Twilight 8:19 AM AKST 8:14 PM AKST
Astronomical Twilight 7:23 AM AKST 9:10 PM AKST
Moon 1:48 AM AKST (2/12) 10:03 AM AKST (2/12)
Length of Visible Light 9h 59m
Length of Day
8h 13m
Waning Gibbous, 71% of the Moon is Illuminated
Feb 12
Waning Gibbous
Feb 14
Last Quarter
Feb 21
New
Feb 29
First Quarter
Mar 8
Full

Hourly Weather History & Observations

Time (AKST) Temp. Windchill Dew Point Humidity Pressure Visibility Wind Dir Wind Speed Gust Speed Precip Events Conditions
12:53 AM 28.0 °F 20.0 °F 19.0 °F 69% 29.05 in 10.0 mi North 8.1 mph - N/A   Scattered Clouds
1:53 AM 28.0 °F 19.3 °F 19.0 °F 69% 29.04 in 10.0 mi North 9.2 mph - N/A   Scattered Clouds
2:53 AM 28.0 °F 17.5 °F 19.9 °F 72% 29.05 in 10.0 mi North 12.7 mph - N/A   Scattered Clouds
3:53 AM 33.1 °F 24.9 °F 21.0 °F 61% 29.03 in 10.0 mi North 10.4 mph - N/A   Scattered Clouds
4:53 AM 25.0 °F 14.8 °F 18.0 °F 75% 29.01 in 10.0 mi North 10.4 mph - N/A   Scattered Clouds
5:53 AM 28.0 °F 20.8 °F 19.0 °F 69% 29.01 in 10.0 mi NNE 6.9 mph - N/A   Scattered Clouds
6:53 AM 30.0 °F 21.1 °F 19.0 °F 64% 29.01 in 10.0 mi North 10.4 mph - N/A   Scattered Clouds
7:53 AM 27.0 °F 18.0 °F 18.0 °F 69% 29.02 in 10.0 mi NE 9.2 mph - N/A   Mostly Cloudy
8:53 AM 30.0 °F 20.0 °F 17.1 °F 59% 29.03 in 10.0 mi NE 12.7 mph - N/A   Mostly Cloudy
9:53 AM 27.0 °F 16.7 °F 17.1 °F 66% 29.03 in 10.0 mi NE 11.5 mph - N/A   Mostly Cloudy
10:53 AM 25.0 °F 15.5 °F 16.0 °F 69% 29.04 in 10.0 mi NE 9.2 mph - N/A   Mostly Cloudy
11:53 AM 27.0 °F 18.0 °F 16.0 °F 63% 29.05 in 10.0 mi NE 9.2 mph - N/A   Mostly Cloudy
12:53 PM 27.0 °F 16.7 °F 17.1 °F 66% 29.05 in 10.0 mi NNE 11.5 mph - N/A   Mostly Cloudy
1:53 PM 27.0 °F 18.7 °F 17.1 °F 66% 29.05 in 10.0 mi NNE 8.1 mph - N/A   Clear
2:53 PM 28.0 °F 20.0 °F 18.0 °F 66% 29.05 in 10.0 mi North 8.1 mph - N/A   Mostly Cloudy
3:53 PM 28.9 °F 20.4 °F 18.0 °F 64% 29.05 in 10.0 mi ENE 9.2 mph - N/A   Mostly Cloudy
4:27 PM 30.2 °F 21.9 °F 19.4 °F 64% 29.05 in 10.0 mi East 9.2 mph - N/A   Mostly Cloudy
4:53 PM 30.0 °F 22.4 °F 21.0 °F 69% 29.06 in 10.0 mi East 8.1 mph - N/A   Mostly Cloudy
5:26 PM 28.4 °F 21.2 °F 19.4 °F 69% 29.06 in 10.0 mi East 6.9 mph - N/A   Overcast
5:53 PM 28.0 °F 17.0 °F 21.9 °F 78% 29.07 in 10.0 mi ENE 13.8 mph - 0.00 in Snow Light Snow
6:03 PM 28.4 °F 18.0 °F 23.0 °F 80% 29.07 in 1.8 mi ENE 12.7 mph - 0.00 in Snow Light Snow
6:14 PM 26.6 °F 16.8 °F 24.8 °F 93% 29.07 in 1.0 mi ENE 10.4 mph - 0.00 in Snow Light Snow
6:34 PM 26.6 °F 16.8 °F 24.8 °F 93% 29.07 in 0.8 mi ENE 10.4 mph - 0.01 in Snow Light Snow
6:45 PM 26.6 °F 16.2 °F 24.8 °F 93% 29.07 in 1.8 mi ENE 11.5 mph - 0.01 in Snow Light Snow
6:48 PM 26.6 °F 16.2 °F 24.8 °F 93% 29.07 in 3.0 mi ENE 11.5 mph - 0.01 in Snow Light Snow
6:53 PM 27.0 °F 16.1 °F 25.0 °F 92% 29.08 in 3.0 mi ENE 12.7 mph - 0.01 in Snow Light Snow
7:53 PM 28.0 °F 16.1 °F 25.0 °F 88% 29.08 in 6.0 mi ENE 16.1 mph - 0.00 in Snow Light Snow
8:36 PM 26.6 °F 13.4 °F 24.8 °F 93% 29.08 in 2.0 mi ENE 18.4 mph - 0.00 in Snow Light Snow
8:53 PM 26.1 °F 13.1 °F 25.0 °F 96% 29.09 in 2.0 mi East 17.3 mph - 0.00 in Snow Light Snow
9:24 PM 26.6 °F 16.2 °F 24.8 °F 93% 29.09 in 3.0 mi East 11.5 mph - 0.00 in Snow Light Snow
9:53 PM 26.1 °F 15.6 °F 25.0 °F 96% 29.11 in 2.0 mi East 11.5 mph - 0.00 in Snow Light Snow
10:41 PM 26.6 °F 15.7 °F 24.8 °F 93% 29.12 in 4.0 mi ESE 12.7 mph - 0.00 in Snow Light Snow
10:53 PM 26.1 °F 15.6 °F 25.0 °F 96% 29.13 in 4.0 mi ESE 11.5 mph - 0.00 in Snow Light Snow
11:00 PM 26.6 °F 16.2 °F 24.8 °F 93% 29.13 in 3.0 mi ESE 11.5 mph - 0.00 in Snow Light Snow
11:39 PM 26.6 °F 17.5 °F 24.8 °F 93% 29.14 in 3.0 mi ESE 9.2 mph - 0.00 in Snow Light Snow
11:53 PM 25.0 °F 15.5 °F 25.0 °F 100% 29.15 in 3.0 mi ESE 9.2 mph - 0.00 in Snow Light Snow